LRAR Weather Reports


time (UTC)temp
C
wind
direction
speed
KPH
gust
KPH
rain 1hr
cm
rain 24hr
cm
rain mn
cm
humidity
%
barometer
mb
20260906021845 13 280 16.1 0.0 0.00 0.00 0.00 88 1022.0
20260906020340 13 280 16.1 0.0 0.00 0.00 0.00 88 1022.0
20260906014840 15 260 11.3 0.0 0.00 0.00 0.00 82 1021.0
20260906013458 15 260 11.3 0.0 0.00 0.00 0.00 82 1021.0
20260906011838 15 260 12.9 0.0 0.00 0.00 0.00 88 1021.0
20260906010338 15 260 12.9 0.0 0.00 0.00 0.00 88 1021.0
20260906004958 13 0 0.0 0.0 0.00 0.00 0.00 94 1021.0
20260906003508 13 0 0.0 0.0 0.00 0.00 0.00 94 1021.0
20260906001958 12 260 8.0 0.0 0.00 0.00 0.00 94 1021.0
20260906000448 12 260 8.0 0.0 0.00 0.00 0.00 94 1021.0
20260905234849 12 240 8.0 0.0 0.00 0.00 0.00 100 1021.0
20260905233338 12 240 8.0 0.0 0.00 0.00 0.00 100 1021.0
20260905231958 15 0 0.0 0.0 0.00 0.00 0.00 94 1021.0
20260905230410 15 0 0.0 0.0 0.00 0.00 0.00 94 1021.0
20260905224959 15 180 1.6 0.0 0.00 0.00 0.00 94 1021.0
20260905223352 15 180 1.6 0.0 0.00 0.00 0.00 94 1021.0
20260905221943 13 240 8.0 0.0 0.00 0.00 0.00 100 1021.0
20260905220458 13 240 8.0 0.0 0.00 0.00 0.00 100 1021.0
20260905214957 15 0 0.0 0.0 0.00 0.00 0.00 100 1021.0
20260905213339 15 0 0.0 0.0 0.00 0.00 0.00 100 1021.0
20260905211838 16 0 0.0 0.0 0.00 0.00 0.00 94 1020.0
20260905210338 16 0 0.0 0.0 0.00 0.00 0.00 94 1020.0
20260905204849 17 350 4.8 0.0 0.00 0.00 0.00 83 1020.0
20260905203338 17 350 4.8 0.0 0.00 0.00 0.00 83 1020.0
20260905201838 17 340 4.8 0.0 0.00 0.00 0.00 83 1020.0
20260905200458 17 340 4.8 0.0 0.00 0.00 0.00 83 1020.0
20260905194950 18 350 4.8 0.0 0.00 0.00 0.00 73 1020.0
20260905193339 18 350 4.8 0.0 0.00 0.00 0.00 73 1020.0
20260905191907 22 320 11.3 0.0 0.00 0.00 0.00 50 1020.0
20260905190340 22 320 11.3 0.0 0.00 0.00 0.00 50 1020.0
20260905184836 22 330 8.0 0.0 0.00 0.00 0.00 47 1019.0
20260905183344 22 330 8.0 0.0 0.00 0.00 0.00 47 1019.0
20260905181835 22 350 9.7 0.0 0.00 0.00 0.00 47 1019.0
20260905180335 22 350 9.7 0.0 0.00 0.00 0.00 47 1019.0
20260905174835 22 350 12.9 0.0 0.00 0.00 0.00 41 1019.0
20260905173338 22 350 12.9 0.0 0.00 0.00 0.00 41 1019.0
20260905171846 23 330 16.1 0.0 0.00 0.00 0.00 36 1018.0
20260905170339 23 330 16.1 0.0 0.00 0.00 0.00 36 1018.0
20260905164838 25 320 22.5 0.0 0.00 0.00 0.00 44 1018.0
20260905163340 25 320 22.5 0.0 0.00 0.00 0.00 44 1018.0
20260905161837 27 330 25.7 0.0 0.00 0.00 0.00 32 1017.0
20260905160339 27 330 25.7 0.0 0.00 0.00 0.00 32 1017.0
20260905154852 28 350 17.7 0.0 0.00 0.00 0.00 31 1016.0
20260905153338 28 350 17.7 0.0 0.00 0.00 0.00 31 1016.0
20260905151839 28 340 20.9 0.0 0.00 0.00 0.00 29 1016.0
20260905150339 28 340 20.9 0.0 0.00 0.00 0.00 29 1016.0
20260905143338 30 350 25.7 0.0 0.00 0.00 0.00 31 1016.0
20260905141836 31 350 25.7 0.0 0.00 0.00 0.00 29 1016.0
20260905140335 31 350 25.7 0.0 0.00 0.00 0.00 29 1016.0
20260905134955 31 340 27.4 0.0 0.00 0.00 0.00 33 1016.0
20260905133339 31 340 27.4 0.0 0.00 0.00 0.00 33 1016.0
20260905131841 31 350 27.4 0.0 0.00 0.00 0.00 38 1016.0
20260905130400 31 350 27.4 0.0 0.00 0.00 0.00 38 1016.0
20260905123339 32 350 27.4 0.0 0.00 0.00 0.00 33 1015.0
20260905121906 32 350 29.0 0.0 0.00 0.00 0.00 33 1015.0
20260905120339 32 350 29.0 0.0 0.00 0.00 0.00 33 1015.0
20260905114839 33 280 14.5 0.0 0.00 0.00 0.00 28 1015.0
20260905113338 33 280 14.5 0.0 0.00 0.00 0.00 28 1015.0
20260905111857 33 270 14.5 0.0 0.00 0.00 0.00 30 1015.0
20260905110338 33 270 14.5 0.0 0.00 0.00 0.00 30 1015.0
20260905104839 32 270 17.7 0.0 0.00 0.00 0.00 30 1015.0
20260905103338 32 270 17.7 0.0 0.00 0.00 0.00 30 1015.0
20260905101838 32 240 16.1 0.0 0.00 0.00 0.00 30 1015.0
20260905100339 32 240 16.1 0.0 0.00 0.00 0.00 30 1015.0
20260905094958 31 240 16.1 0.0 0.00 0.00 0.00 33 1015.0
20260905093338 31 240 16.1 0.0 0.00 0.00 0.00 33 1015.0
20260905091838 31 230 20.9 0.0 0.00 0.00 0.00 31 1015.0
20260905090338 31 230 20.9 0.0 0.00 0.00 0.00 31 1015.0
20260905084838 28 220 20.9 0.0 0.00 0.00 0.00 35 1015.0
20260905083338 28 220 20.9 0.0 0.00 0.00 0.00 35 1015.0
20260905081838 28 220 17.7 0.0 0.00 0.00 0.00 35 1016.0
20260905080339 28 220 17.7 0.0 0.00 0.00 0.00 35 1016.0
20260905074838 27 200 20.9 0.0 0.00 0.00 0.00 39 1015.0
20260905073347 27 200 20.9 0.0 0.00 0.00 0.00 39 1015.0
20260905071839 26 200 20.9 0.0 0.00 0.00 0.00 42 1015.0
20260905070338 26 200 20.9 0.0 0.00 0.00 0.00 42 1015.0
20260905064839 25 190 22.5 0.0 0.00 0.00 0.00 44 1015.0
20260905063339 25 190 22.5 0.0 0.00 0.00 0.00 44 1015.0
20260905061839 23 180 17.7 0.0 0.00 0.00 0.00 47 1016.0
20260905060339 23 180 17.7 0.0 0.00 0.00 0.00 47 1016.0
20260905054839 22 160 17.7 0.0 0.00 0.00 0.00 50 1015.0
20260905053339 22 160 17.7 0.0 0.00 0.00 0.00 50 1015.0
20260905051838 21 170 16.1 0.0 0.00 0.00 0.00 53 1015.0
20260905050339 21 170 16.1 0.0 0.00 0.00 0.00 53 1015.0
20260905044839 20 160 16.1 0.0 0.00 0.00 0.00 56 1015.0
20260905043338 20 160 16.1 0.0 0.00 0.00 0.00 56 1015.0
20260905041839 20 160 16.1 0.0 0.00 0.00 0.00 56 1015.0
20260905040338 20 160 16.1 0.0 0.00 0.00 0.00 56 1015.0
20260905034839 20 170 12.9 0.0 0.00 0.00 0.00 56 1015.0
20260905033338 20 170 12.9 0.0 0.00 0.00 0.00 56 1015.0
20260905031839 20 160 14.5 0.0 0.00 0.00 0.00 56 1015.0
20260905030339 20 160 14.5 0.0 0.00 0.00 0.00 56 1015.0
20260905024851 18 160 12.9 0.0 0.00 0.00 0.00 60 1015.0
20260905023339 18 160 12.9 0.0 0.00 0.00 0.00 60 1015.0